Regional Weather Roundup
Issued by NWS

Home | Current Version | Previous Version | Graphics & Text | Print | Product List | Glossary On
Versions: 1 2 3 4 5 6 7 8 9 10 11 12 13 14 15 16 17 18 19 20 21 22 23 24 25 26 27 28 29 30 31 32 33 34 35 36 37 38 39 40 41 42 43 44 45 46 47 48 49 50
000
ASUS45 KSLC 010310
RWRUT

UTAH REGIONAL WEATHER ROUNDUP
NATIONAL WEATHER SERVICE SALT LAKE CITY UT
800 PM MST SAT FEB 28 2015

UTZ001>011-023>025-010400-

NORTHERN UTAH

CITY           SKY/WX    TMP DP  RH WIND       PRES   REMARKS
BRIGHAM CITY   CLOUDY    40  21  47 SE8       29.83R WCI  34
HILL AFB       CLOUDY    33  28  80 E15G22    29.83R WCI  23
LOGAN          MOCLDY    40  16  37 SE9       29.82R WCI  34
OGDEN          CLOUDY    36  27  69 S8        29.83R WCI  30
PROVO AIRPORT  MOCLDY    36  32  87 VRB5      29.85R WCI  32
SALT LAKE CITY LGT RAIN  35  32  88 S7        29.85R WCI  29
VERNAL         LGT SNOW  32  31  96 N5        29.83R FOG     WCI  27
WENDOVER       CLOUDY    37  28  70 NW9       29.85R WCI  31
HEBER CITY     LGT SNOW  30  28  93 CALM      29.82R
WEST JORDAN    CLOUDY    34  32  93 N7        29.85R WCI  28

$$

UTZ012>022-026-027-010400-

SOUTHERN/CENTRAL UTAH

CITY           SKY/WX    TMP DP  RH WIND       PRES   REMARKS
BLANDING       CLOUDY    32  32 100 SW5       29.95R WCI  27
BRYCE CANYON   PTCLDY    17  14  88 SW9       29.83  WCI   6
CEDAR CITY     FOG       28  26  92 E5        29.81R VSB 1   WCI  23
DELTA          CLOUDY    33  33  99 S6        29.83R WCI  27
HANKSVILLE     CLEAR     34  32  93 N10       29.84R WCI  26
MILFORD        CLOUDY    37  30  75 S9        29.80R WCI  30
MOAB/CYNLANDS  CLOUDY    32  30  92 CALM      29.81R
PRICE          CLOUDY    33  29  85 E5        29.81R WCI  29
ST GEORGE      MOCLDY    46  37  71 SE6       29.83R
KANAB          CLOUDY    36  34  93 SW12G21   29.89R WCI  27

$$

REGIONAL REPORTS     COLORADO/ARIZONA

CITY           SKY/WX    TMP DP  RH WIND       PRES   REMARKS
CRAIG, CO      LGT SNOW  29  27  92 CALM      29.82R FOG
GRAND JUNCTION MOCLDY    31  27  85 S7        29.82R WCI  24
RIFLE          MOCLDY    33  25  72 S3        29.81R
MONTROSE       CLOUDY    34  30  85 SE5       29.86R WCI  30
CORTEZ         FOG       32  31  96 NE3       29.89R VSB 1/4
PAGE, AZ       MOCLDY    42  37  82 N6        29.84R
GRAND CANYON   CLOUDY    36  28  73 SW8       29.87R WCI  30
KINGMAN        PTCLDY    48  28  46 S12       29.82R
FLAGSTAFF      CLOUDY    35  32  88 SW13G22   29.89R WCI  26

$$

REGIONAL REPORTS    NEVADA/IDAHO/WYOMING

CITY           SKY/WX    TMP DP  RH WIND       PRES   REMARKS
LAS VEGAS, NV  PTCLDY    58  23  26 S15       29.74R
ELY            LGT SNOW  31  30  96 N5        29.80R FOG     WCI  26
ELKO           PTCLDY    33  29  85 NE12      29.82R WCI  24
POCATELLO, ID  CLEAR     32  10  40 NE21G28   29.90R WCI  20
BURLEY         CLEAR     36  13  38 NE7       29.87R WCI  30
EVANSTON, WY   LGT SNOW  24  22  91 E6        29.82R FOG     WCI  17
ROCK SPRINGS   LGT SNOW  14   7  73 NE20      29.88R WCI  -3

$$


USA.gov is the U.S. government's official web portal to all federal, state and local government web resources and services.